KF0ZH Weather Reports


Display with metric or nautical units.
time (UTC)temp
F
wind
direction
speed
MPH
gust
MPH
rain 1hr
in
rain 24hr
in
rain mn
in
humidity
%
barometer
mb
20260503013102 64 288 10.0 25.0 0.00 0.10 0.10 46 1009.0
20260503011602 65 220 10.0 10.0 0.00 0.10 0.10 44 1008.9
20260503010602 65 244 3.0 8.0 0.00 0.10 0.10 43 1008.7
20260503005102 65 289 0.0 2.0 0.00 0.10 0.10 44 1008.7
20260503004602 65 275 0.0 10.0 0.00 0.10 0.10 44 1008.8
20260503004102 65 265 7.0 8.0 0.00 0.10 0.10 44 1008.8
20260503003605 65 279 0.0 0.0 0.00 0.10 0.10 43 1008.8
20260503002602 65 327 3.0 12.0 0.00 0.10 0.10 44 1008.7
20260503002103 64 310 5.0 7.0 0.00 0.10 0.10 45 1008.7
20260503001602 65 255 7.0 10.0 0.00 0.10 0.10 45 1009.1
20260503001103 65 264 0.0 0.0 0.00 0.10 0.10 45 1009.0
20260503000605 65 282 6.0 9.0 0.00 0.10 0.10 44 1008.9
20260503000106 65 303 3.0 6.0 0.00 0.10 0.10 45 1008.7
20260502235603 65 358 0.0 8.0 0.00 0.10 0.10 45 1008.6
20260502235102 65 275 0.0 0.0 0.00 0.10 0.10 45 1008.8
20260502233106 66 2 5.0 20.0 0.00 0.10 0.10 45 1009.3
20260502232603 66 154 0.0 0.0 0.00 0.10 0.10 43 1009.2
20260502232102 66 154 0.0 0.0 0.00 0.10 0.10 43 1009.4
20260502231102 66 181 0.0 0.0 0.00 0.10 0.10 43 1009.4
20260502225602 67 167 0.0 0.0 0.00 0.10 0.10 42 1009.5
20260502224602 67 254 9.0 11.0 0.00 0.10 0.10 41 1009.6
20260502224102 67 247 0.0 0.0 0.00 0.10 0.10 41 1009.7
20260502223602 67 202 7.0 13.0 0.00 0.10 0.10 40 1009.7
20260502223122 67 213 9.0 9.0 0.00 0.10 0.10 40 1009.8
20260502222110 67 206 4.0 12.0 0.00 0.10 0.10 40 1009.9
20260502221607 67 223 7.0 13.0 0.00 0.10 0.10 40 1009.9
20260502220603 68 212 4.0 11.0 0.00 0.10 0.10 39 1010.1
20260502215603 68 215 3.0 13.0 0.00 0.10 0.10 40 1010.3
20260502215102 68 312 7.0 16.0 0.00 0.10 0.10 39 1010.2
20260502214103 68 275 5.0 13.0 0.00 0.10 0.10 39 1010.4
20260502213604 68 180 0.0 0.0 0.00 0.10 0.10 41 1010.5
20260502212602 67 171 0.0 7.0 0.00 0.10 0.10 41 1010.7
20260502212102 67 246 7.0 10.0 0.00 0.10 0.10 40 1010.8
20260502211604 67 236 18.0 18.0 0.00 0.10 0.10 40 1010.8
20260502210603 68 268 0.0 3.0 0.00 0.10 0.10 40 1011.1
20260502205603 67 246 3.0 4.0 0.00 0.10 0.10 39 1011.4
20260502205102 67 271 16.0 16.0 0.00 0.10 0.10 40 1011.5
20260502204601 67 234 5.0 14.0 0.00 0.10 0.10 40 1011.6
20260502204102 66 261 0.0 7.0 0.00 0.10 0.10 41 1011.7
20260502203602 66 296 0.0 6.0 0.00 0.10 0.10 40 1011.8
20260502203104 67 220 5.0 13.0 0.00 0.10 0.10 40 1011.9
20260502202602 66 219 6.0 7.0 0.00 0.10 0.10 42 1012.0
20260502202101 66 213 5.0 8.0 0.00 0.10 0.10 41 1012.1
20260502200602 66 278 6.0 7.0 0.00 0.10 0.10 42 1012.4
20260502195101 65 226 5.0 10.0 0.00 0.10 0.10 42 1012.9
20260502194102 64 202 5.0 9.0 0.00 0.10 0.10 42 1013.1
20260502193602 63 234 4.0 13.0 0.00 0.10 0.10 41 1013.2
20260502192102 63 171 7.0 16.0 0.00 0.10 0.10 42 1013.4
20260502191102 62 227 9.0 11.0 0.00 0.10 0.10 43 1013.6
20260502190604 62 229 0.0 4.0 0.00 0.10 0.10 42 1013.8
20260502190110 63 136 5.0 8.0 0.00 0.10 0.10 43 1013.9
20260502185601 63 195 6.0 9.0 0.00 0.10 0.10 41 1014.1
20260502185103 62 164 8.0 12.0 0.00 0.10 0.10 41 1014.2
20260502184101 61 251 14.0 15.0 0.00 0.10 0.10 44 1014.4
20260502183602 61 198 9.0 13.0 0.00 0.10 0.10 43 1014.5
20260502183103 60 270 0.0 5.0 0.00 0.10 0.10 45 1014.5
20260502182602 60 203 0.0 10.0 0.10 0.10 0.10 43 1014.8
20260502182101 60 174 4.0 11.0 0.10 0.10 0.10 45 1014.7
20260502181310 60 296 4.0 5.0 0.10 0.10 0.10 45 1015.3
20260502181102 60 203 6.0 9.0 0.10 0.10 0.10 45 1015.0
20260502180606 60 210 4.0 7.0 0.10 0.10 0.10 45 1015.1
20260502170202 58 262 11.0 16.0 0.00 0.00 0.00 44 1016.3
20260502164201 57 272 4.0 6.0 0.00 0.00 0.00 48 1016.5
20260502163702 56 203 4.0 10.0 0.00 0.00 0.00 47 1016.5
20260502163202 56 289 0.0 4.0 0.00 0.00 0.00 47 1016.7
20260502162703 56 234 4.0 9.0 0.00 0.00 0.00 46 1016.7
20260502162202 56 222 8.0 10.0 0.00 0.00 0.00 47 1016.8
20260502161701 55 232 6.0 12.0 0.00 0.00 0.00 48 1016.9
20260502161202 55 336 0.0 7.0 0.00 0.00 0.00 49 1017.0
20260502160202 55 244 8.0 13.0 0.00 0.00 0.00 47 1017.1
20260502151702 54 239 5.0 9.0 0.00 0.00 0.00 51 1017.6
20260502150702 54 215 4.0 9.0 0.00 0.00 0.00 55 1017.7
20260502150201 54 168 0.0 0.0 0.00 0.00 0.00 57 1017.7
20260502130701 43 262 4.0 7.0 0.00 0.00 0.00 75 1018.5
20260502122701 40 268 0.0 5.0 0.00 0.00 0.00 78 1018.5
20260502121701 40 270 0.0 5.0 0.00 0.00 0.00 79 1018.3
20260502121201 39 188 0.0 5.0 0.00 0.00 0.00 80 1018.5
20260502120703 39 219 0.0 0.0 0.00 0.00 0.00 81 1018.5
20260502115735 38 240 0.0 0.0 0.00 0.00 0.00 82 1018.3
20260502115702 38 240 0.0 0.0 0.00 0.00 0.00 82 1018.3
20260502114705 37 240 0.0 0.0 0.00 0.00 0.00 82 1018.1
20260502114201 37 240 0.0 0.0 0.00 0.00 0.00 82 1018.1
20260502113201 37 240 0.0 0.0 0.00 0.00 0.00 82 1018.2
20260502111701 38 240 0.0 0.0 0.00 0.00 0.00 81 1018.1
20260502111427 38 240 0.0 0.0 0.00 0.00 0.00 80 1018.0
20260502111202 38 240 0.0 0.0 0.00 0.00 0.00 80 1018.0
20260502110704 38 240 0.0 0.0 0.00 0.00 0.00 80 1018.0
20260502104702 38 254 0.0 0.0 0.00 0.00 0.00 80 1018.1
20260502104202 38 254 0.0 0.0 0.00 0.00 0.00 80 1018.0
20260502102701 38 254 0.0 0.0 0.00 0.00 0.00 78 1018.0
20260502101746 39 254 0.0 0.0 0.00 0.00 0.00 78 1018.0
20260502101703 39 254 0.0 0.0 0.00 0.00 0.00 78 1018.0
20260502101202 39 254 0.0 0.0 0.00 0.00 0.00 77 1017.9
20260502100705 39 254 0.0 0.0 0.00 0.00 0.00 77 1018.0
20260502100305 39 254 0.0 0.0 0.00 0.00 0.00 77 1017.9
20260502100209 39 254 0.0 0.0 0.00 0.00 0.00 77 1017.9
20260502091201 41 244 0.0 4.0 0.00 0.00 0.00 73 1017.8
20260502090701 41 243 0.0 3.0 0.00 0.00 0.00 73 1017.8
20260502090313 41 271 0.0 0.0 0.00 0.00 0.00 73 1017.8
20260502090201 41 271 0.0 0.0 0.00 0.00 0.00 73 1017.8
20260502071202 40 330 0.0 0.0 0.00 0.00 0.00 75 1017.9
20260502070702 40 330 0.0 0.0 0.00 0.00 0.00 75 1017.9
20260502065701 40 330 0.0 0.0 0.00 0.00 0.00 74 1017.9
20260502065332 40 330 0.0 0.0 0.00 0.00 0.00 74 1018.1
20260502065203 40 330 0.0 0.0 0.00 0.00 0.00 74 1018.1
20260502064702 40 330 0.0 0.0 0.00 0.00 0.00 73 1018.0
20260502064204 40 330 0.0 0.0 0.00 0.00 0.00 73 1018.0
20260502063701 41 330 0.0 0.0 0.00 0.00 0.00 73 1018.0
20260502062701 42 330 0.0 0.0 0.00 0.00 0.00 71 1018.0
20260502062201 42 330 0.0 0.0 0.00 0.00 0.00 71 1018.0
20260502061702 42 330 0.0 0.0 0.00 0.00 0.00 71 1018.0
20260502060701 42 330 0.0 0.0 0.00 0.00 0.00 71 1018.0
20260502060335 42 330 0.0 0.0 0.00 0.00 0.00 71 1018.0
20260502060201 42 330 0.0 0.0 0.00 0.00 0.00 71 1018.0
20260502055702 41 330 0.0 0.0 0.00 0.00 0.00 72 1018.0
20260502055203 41 330 0.0 0.0 0.00 0.00 0.00 73 1017.9
20260502054701 41 330 0.0 0.0 0.00 0.00 0.00 73 1018.0
20260502054233 40 330 0.0 0.0 0.00 0.00 0.00 74 1018.0
20260502054201 40 330 0.0 0.0 0.00 0.00 0.00 74 1018.0
20260502053701 40 330 0.0 0.0 0.00 0.00 0.00 73 1018.0
20260502053429 41 330 0.0 0.0 0.00 0.00 0.00 73 1018.0
20260502053202 41 330 0.0 0.0 0.00 0.00 0.00 73 1018.0
20260502052701 41 330 0.0 0.0 0.00 0.00 0.00 73 1018.0
20260502052247 41 330 0.0 0.0 0.00 0.00 0.00 72 1018.0
20260502052201 41 330 0.0 0.0 0.00 0.00 0.00 72 1018.0
20260502051702 41 330 0.0 0.0 0.00 0.00 0.00 71 1018.0
20260502051201 42 330 0.0 0.0 0.00 0.00 0.00 71 1017.9
20260502050701 42 330 0.0 0.0 0.00 0.00 0.00 70 1017.9
20260502050203 42 330 0.0 0.0 0.00 0.00 0.00 70 1017.9
20260502045701 42 330 0.0 0.0 0.00 0.00 0.00 69 1017.9
20260502045203 42 330 0.0 0.0 0.00 0.00 0.00 69 1017.8
20260502044702 43 330 0.0 0.0 0.00 0.00 0.00 68 1017.8
20260502044201 43 330 0.0 0.0 0.00 0.00 0.00 67 1017.8
20260502043702 43 330 0.0 0.0 0.00 0.00 0.00 67 1017.8
20260502043202 43 330 0.0 0.0 0.00 0.00 0.00 67 1017.8
20260502042701 43 330 0.0 0.0 0.00 0.00 0.00 67 1017.8
20260502042202 43 330 0.0 0.0 0.00 0.00 0.00 66 1017.7
20260502041702 44 330 0.0 0.0 0.00 0.00 0.00 66 1017.7
20260502041235 44 330 0.0 0.0 0.00 0.00 0.00 66 1017.7
20260502041201 44 330 0.0 0.0 0.00 0.00 0.00 66 1017.7
20260502040701 44 330 0.0 0.0 0.00 0.00 0.00 65 1017.7
20260502040201 44 330 0.0 0.0 0.00 0.00 0.00 64 1017.7
20260502035702 44 330 0.0 0.0 0.00 0.00 0.00 65 1017.8
20260502035358 44 330 0.0 0.0 0.00 0.00 0.00 65 1017.8
20260502035313 44 330 0.0 0.0 0.00 0.00 0.00 65 1017.8
20260502035201 44 330 0.0 0.0 0.00 0.00 0.00 65 1017.8
20260502034701 44 330 0.0 0.0 0.00 0.00 0.00 65 1017.8
20260502034202 44 330 0.0 0.0 0.00 0.00 0.00 64 1017.8
20260502033701 44 330 0.0 0.0 0.00 0.00 0.00 65 1017.8
20260502033201 45 330 0.0 0.0 0.00 0.00 0.00 64 1017.8
20260502032204 44 330 0.0 0.0 0.00 0.00 0.00 64 1017.8
20260502031702 45 330 0.0 0.0 0.00 0.00 0.00 65 1017.8
20260502031201 45 330 0.0 0.0 0.00 0.00 0.00 64 1017.9
20260502030701 45 330 0.0 0.0 0.00 0.00 0.00 64 1017.8
20260502025703 45 330 0.0 0.0 0.00 0.00 0.00 63 1017.7
20260502025201 45 330 0.0 0.0 0.00 0.00 0.00 62 1017.8
20260502024701 45 330 0.0 0.0 0.00 0.00 0.00 62 1017.8
20260502024202 46 330 0.0 0.0 0.00 0.00 0.00 61 1017.7
20260502023701 46 330 0.0 0.0 0.00 0.00 0.00 60 1017.7
20260502023201 46 330 0.0 0.0 0.00 0.00 0.00 60 1017.7
20260502022701 46 330 0.0 0.0 0.00 0.00 0.00 59 1017.7
20260502022201 47 330 0.0 0.0 0.00 0.00 0.00 58 1017.6
20260502020701 47 330 0.0 0.0 0.00 0.00 0.00 57 1017.6
20260502015701 48 330 0.0 0.0 0.00 0.00 0.00 55 1017.4
20260502015201 48 330 0.0 0.0 0.00 0.00 0.00 54 1017.3
20260502014700 49 330 0.0 0.0 0.00 0.00 0.00 54 1017.3